"Time","A4260903","A4260903"
"and",100.00,400.00
"Date","Water Level (m)","Discharge (ML/Day)"
"","Mean","Mean"
09:00:00 30/08/2007,0.136,294.188
09:00:00 31/08/2007,0.291,293.5
09:00:00 01/09/2007,0.22,313.5
09:00:00 02/09/2007,0.11,350.0
09:00:00 03/09/2007,0.192,350.0
09:00:00 04/09/2007,0.166,350.0
09:00:00 05/09/2007,0.104,350.0
09:00:00 06/09/2007,0.133,373.0
09:00:00 07/09/2007,0.148,396.0
09:00:00 08/09/2007,0.141,396.0
09:00:00 09/09/2007,0.118,396.0
09:00:00 10/09/2007,0.123,396.0
09:00:00 11/09/2007,0.28,353.0
09:00:00 12/09/2007,0.217,310.0
09:00:00 13/09/2007,0.059,310.0
09:00:00 14/09/2007,0.217,280.5
09:00:00 15/09/2007,0.182,251.0
09:00:00 16/09/2007,0.057,251.0
09:00:00 17/09/2007,0.183,241.5
09:00:00 18/09/2007,0.146,223.5
09:00:00 19/09/2007,,717.5
09:00:00 20/09/2007,,
09:00:00 21/09/2007,,
09:00:00 22/09/2007,,
09:00:00 23/09/2007,,
09:00:00 24/09/2007,,
09:00:00 25/09/2007,,
09:00:00 26/09/2007,,
09:00:00 27/09/2007,,
09:00:00 28/09/2007,0.18,738.5
09:00:00 29/09/2007,0.268,738.5
09:00:00 30/09/2007,0.234,790.5
09:00:00 01/10/2007,0.139,818.0
09:00:00 02/10/2007,0.07,848.5
09:00:00 03/10/2007,0.167,1229.5
09:00:00 04/10/2007,0.218,1635.0
09:00:00 05/10/2007,0.179,1690.0
09:00:00 06/10/2007,0.289,1635.0
09:00:00 07/10/2007,0.266,1635.0
09:00:00 08/10/2007,0.16,1635.0
09:00:00 09/10/2007,0.155,1635.0
09:00:00 10/10/2007,0.118,1745.0
09:00:00 11/10/2007,0.139,1690.0
09:00:00 12/10/2007,0.164,1485.0
09:00:00 13/10/2007,0.177,1455.0
09:00:00 14/10/2007,0.157,1570.0
09:00:00 15/10/2007,0.109,1620.0
09:00:00 16/10/2007,0.235,1570.0
09:00:00 17/10/2007,0.199,1520.0
09:00:00 18/10/2007,0.119,1495.0
09:00:00 19/10/2007,0.219,1375.0
09:00:00 20/10/2007,0.178,1325.0
09:00:00 21/10/2007,0.1,1370.0
09:00:00 22/10/2007,0.127,1325.0
09:00:00 23/10/2007,0.145,1170.0
09:00:00 24/10/2007,0.178,1023.0
09:00:00 25/10/2007,0.226,986.0
09:00:00 26/10/2007,0.191,1108.0
09:00:00 27/10/2007,0.112,1275.0
09:00:00 28/10/2007,0.15,1320.0
09:00:00 29/10/2007,0.21,1320.0
09:00:00 30/10/2007,0.107,1230.0
09:00:00 31/10/2007,0.059,1185.0
09:00:00 01/11/2007,0.581,1275.0
09:00:00 02/11/2007,0.54,1320.0
09:00:00 03/11/2007,0.129,1470.0
09:00:00 04/11/2007,0.202,1620.0
09:00:00 05/11/2007,0.253,1675.0
09:00:00 06/11/2007,0.268,2235.0
09:00:00 07/11/2007,0.278,2740.0
09:00:00 08/11/2007,0.26,2825.0
09:00:00 09/11/2007,0.238,2975.0
09:00:00 10/11/2007,0.215,2905.0
09:00:00 11/11/2007,0.205,2580.0
09:00:00 12/11/2007,0.232,2335.0
09:00:00 13/11/2007,0.228,2155.0
09:00:00 14/11/2007,0.205,2400.0
09:00:00 15/11/2007,0.183,2175.0
09:00:00 16/11/2007,0.138,1580.0
09:00:00 17/11/2007,0.104,1475.0
09:00:00 18/11/2007,0.068,1335.0
09:00:00 19/11/2007,0.045,1335.0
09:00:00 20/11/2007,0.072,1210.0
09:00:00 21/11/2007,0.073,1175.0
09:00:00 22/11/2007,0.11,1235.0
09:00:00 23/11/2007,0.182,1205.001
09:00:00 24/11/2007,0.157,1275.0
09:00:00 25/11/2007,0.163,1310.0
09:00:00 26/11/2007,0.205,1275.0
09:00:00 27/11/2007,0.167,1315.0
09:00:00 28/11/2007,0.125,1390.0
09:00:00 29/11/2007,0.136,1655.0
09:00:00 30/11/2007,0.145,1955.0
09:00:00 01/12/2007,0.151,1990.0
09:00:00 02/12/2007,0.101,1990.0
09:00:00 03/12/2007,0.077,1815.0
09:00:00 04/12/2007,0.111,1815.0
09:00:00 05/12/2007,0.082,1940.0
09:00:00 06/12/2007,0.023,1855.0
09:00:00 07/12/2007,0.097,1705.0
09:00:00 08/12/2007,0.137,1435.0
09:00:00 09/12/2007,0.046,1255.0
09:00:00 10/12/2007,0.011,1205.0
09:00:00 11/12/2007,0.009,1017.0
09:00:00 12/12/2007,0.0,629.0
09:00:00 13/12/2007,0.0,727.0
09:00:00 14/12/2007,0.006,1045.0
09:00:00 15/12/2007,0.107,1019.5
09:00:00 16/12/2007,0.125,977.0
09:00:00 17/12/2007,0.059,955.0
09:00:00 18/12/2007,0.023,1182.5
09:00:00 19/12/2007,-0.054,1385.0
09:00:00 20/12/2007,-0.035,1455.0
09:00:00 21/12/2007,0.009,1715.0
09:00:00 22/12/2007,0.076,1925.0
09:00:00 23/12/2007,0.102,2065.0
09:00:00 24/12/2007,0.048,2115.0
09:00:00 25/12/2007,0.041,2070.0
09:00:00 26/12/2007,0.05,2070.0
09:00:00 27/12/2007,0.039,2020.0
09:00:00 28/12/2007,0.014,1970.0
09:00:00 29/12/2007,-0.011,1715.0
09:00:00 30/12/2007,0.007,1420.0
09:00:00 31/12/2007,0.014,1380.0
09:00:00 01/01/2008,-0.021,1166.5
09:00:00 02/01/2008,0.073,880.0
09:00:00 03/01/2008,0.1,830.5
09:00:00 04/01/2008,0.024,878.0
09:00:00 05/01/2008,0.026,902.0
09:00:00 06/01/2008,0.045,789.0
09:00:00 07/01/2008,0.045,697.0
09:00:00 08/01/2008,0.029,739.5
09:00:00 09/01/2008,0.025,807.5
09:00:00 10/01/2008,0.052,903.5
09:00:00 11/01/2008,0.102,953.0
09:00:00 12/01/2008,-0.011,976.5
09:00:00 13/01/2008,-0.098,1085.0
09:00:00 14/01/2008,-0.102,1200.0
09:00:00 15/01/2008,-0.103,1325.0
09:00:00 16/01/2008,0.023,1325.0
09:00:00 17/01/2008,0.051,1260.0
09:00:00 18/01/2008,0.108,1355.0
09:00:00 19/01/2008,0.173,1420.0
09:00:00 20/01/2008,0.069,1420.0
09:00:00 21/01/2008,0.0,1535.0
09:00:00 22/01/2008,0.009,1570.0
09:00:00 23/01/2008,-0.01,1525.0
09:00:00 24/01/2008,-0.038,1560.0
09:00:00 25/01/2008,-0.052,1560.0
09:00:00 26/01/2008,-0.074,1560.0
09:00:00 27/01/2008,-0.017,1525.0
09:00:00 28/01/2008,-0.013,1490.0
09:00:00 29/01/2008,-0.101,1420.0
09:00:00 30/01/2008,-0.098,1315.0
09:00:00 31/01/2008,-0.085,1220.0
09:00:00 01/02/2008,-0.055,1160.0
09:00:00 02/02/2008,-0.14,1230.0
09:00:00 03/02/2008,-0.115,1240.0
09:00:00 04/02/2008,-0.129,1150.0
09:00:00 05/02/2008,-0.022,1120.0
09:00:00 06/02/2008,0.007,1150.0
09:00:00 07/02/2008,0.018,1315.0
09:00:00 08/02/2008,-0.081,1490.0
09:00:00 09/02/2008,-0.083,1570.0
09:00:00 10/02/2008,-0.097,1650.0
09:00:00 11/02/2008,-0.112,1690.0
09:00:00 12/02/2008,-0.162,1690.0
09:00:00 13/02/2008,-0.031,1690.0
09:00:00 14/02/2008,-0.087,1690.0
09:00:00 15/02/2008,-0.155,1690.0
09:00:00 16/02/2008,-0.218,1610.0
09:00:00 17/02/2008,-0.276,1490.0
09:00:00 18/02/2008,-0.331,1415.0
09:00:00 19/02/2008,-0.329,1410.0
09:00:00 20/02/2008,-0.305,1310.0
09:00:00 21/02/2008,-0.153,1245.0
09:00:00 22/02/2008,-0.25,1340.0
09:00:00 23/02/2008,-0.062,1340.0
09:00:00 24/02/2008,-0.182,1310.0
09:00:00 25/02/2008,-0.254,1275.0
09:00:00 26/02/2008,-0.299,1235.0
09:00:00 27/02/2008,-0.292,1200.0
09:00:00 28/02/2008,-0.237,1170.0
09:00:00 29/02/2008,-0.223,1200.0
09:00:00 01/03/2008,-0.322,1260.0
09:00:00 02/03/2008,-0.389,1290.0
09:00:00 03/03/2008,-0.437,1290.0
09:00:00 04/03/2008,-0.417,1290.0
09:00:00 05/03/2008,-0.407,1320.0
09:00:00 06/03/2008,-0.452,1350.0
09:00:00 07/03/2008,-0.351,1260.0
09:00:00 08/03/2008,-0.432,1140.0
09:00:00 09/03/2008,-0.435,1054.5
09:00:00 10/03/2008,-0.464,999.0
09:00:00 11/03/2008,-0.325,1064.5
09:00:00 12/03/2008,-0.34,1200.0
09:00:00 13/03/2008,-0.42,1305.0
09:00:00 14/03/2008,-0.474,1375.0
09:00:00 15/03/2008,-0.422,1340.0
09:00:00 16/03/2008,-0.487,1270.0
09:00:00 17/03/2008,-0.448,1270.0
09:00:00 18/03/2008,-0.463,1200.0
09:00:00 19/03/2008,-0.236,1175.0
09:00:00 20/03/2008,-0.411,1255.0
09:00:00 21/03/2008,-0.301,1325.0
09:00:00 22/03/2008,-0.383,1360.0
09:00:00 23/03/2008,-0.422,1395.0
09:00:00 24/03/2008,-0.452,1430.0
09:00:00 25/03/2008,-0.423,1470.0
09:00:00 26/03/2008,-0.294,1390.0
09:00:00 27/03/2008,-0.3,1290.0
09:00:00 28/03/2008,-0.413,1360.0
09:00:00 29/03/2008,-0.47,1370.0
09:00:00 30/03/2008,-0.409,1330.0
09:00:00 31/03/2008,-0.436,1330.0
09:00:00 01/04/2008,-0.435,1285.0
09:00:00 02/04/2008,-0.542,1325.0
09:00:00 03/04/2008,-0.274,1325.0
09:00:00 04/04/2008,-0.364,1240.0
09:00:00 05/04/2008,-0.463,1285.0
09:00:00 06/04/2008,-0.465,1330.0
09:00:00 07/04/2008,-0.496,1330.0
09:00:00 08/04/2008,-0.482,1370.0
09:00:00 09/04/2008,-0.512,1410.0
09:00:00 10/04/2008,-0.489,1410.0
09:00:00 11/04/2008,-0.456,1460.0
09:00:00 12/04/2008,-0.451,1510.0
09:00:00 13/04/2008,-0.407,1460.0
09:00:00 14/04/2008,-0.418,1410.0
09:00:00 15/04/2008,-0.413,1410.0
09:00:00 16/04/2008,-0.428,1410.0
09:00:00 17/04/2008,-0.421,1410.0
09:00:00 18/04/2008,-0.435,1410.0
09:00:00 19/04/2008,-0.492,1410.0
09:00:00 20/04/2008,-0.521,1410.0
09:00:00 21/04/2008,-0.513,1410.0
09:00:00 22/04/2008,-0.455,1410.0
09:00:00 23/04/2008,-0.508,1325.0
09:00:00 24/04/2008,-0.543,1165.0
09:00:00 25/04/2008,-0.543,1050.0
09:00:00 26/04/2008,-0.478,975.5
09:00:00 27/04/2008,-0.479,941.0
09:00:00 28/04/2008,-0.474,907.0
09:00:00 29/04/2008,-0.459,907.0
09:00:00 30/04/2008,-0.493,941.0
09:00:00 01/05/2008,-0.548,941.0
09:00:00 02/05/2008,-0.389,975.5
09:00:00 03/05/2008,-0.389,1010.0
09:00:00 04/05/2008,-0.435,1010.0
09:00:00 05/05/2008,-0.441,1010.0
09:00:00 06/05/2008,-0.413,1050.0
09:00:00 07/05/2008,-0.386,1010.5
09:00:00 08/05/2008,-0.393,931.0
09:00:00 09/05/2008,-0.434,995.5
09:00:00 10/05/2008,-0.444,1065.0
09:00:00 11/05/2008,-0.446,1070.0
09:00:00 12/05/2008,-0.465,1040.0
09:00:00 13/05/2008,-0.431,1040.0
09:00:00 14/05/2008,-0.461,1040.0
09:00:00 15/05/2008,-0.499,991.5
09:00:00 16/05/2008,-0.491,958.0
09:00:00 17/05/2008,-0.456,943.0
09:00:00 18/05/2008,-0.253,943.0
09:00:00 19/05/2008,-0.37,943.0
09:00:00 20/05/2008,-0.445,943.0
09:00:00 21/05/2008,-0.441,943.0
09:00:00 22/05/2008,-0.459,943.0
09:00:00 23/05/2008,-0.463,943.0
09:00:00 24/05/2008,-0.474,976.5
09:00:00 25/05/2008,-0.51,1010.0
09:00:00 26/05/2008,-0.469,976.5
09:00:00 27/05/2008,-0.452,1046.5
09:00:00 28/05/2008,-0.436,1150.0
09:00:00 29/05/2008,-0.469,1150.0
09:00:00 30/05/2008,-0.505,1150.0
09:00:00 31/05/2008,-0.463,1110.0
09:00:00 01/06/2008,-0.46,1040.0
09:00:00 02/06/2008,-0.478,1010.0
09:00:00 03/06/2008,-0.473,1010.0
09:00:00 04/06/2008,-0.437,1010.0
09:00:00 05/06/2008,-0.424,1010.0
09:00:00 06/06/2008,-0.412,1040.0
09:00:00 07/06/2008,-0.383,1070.0
09:00:00 08/06/2008,-0.438,1070.0
09:00:00 09/06/2008,-0.465,1145.0
09:00:00 10/06/2008,-0.475,1220.0
09:00:00 11/06/2008,-0.521,1220.0
09:00:00 12/06/2008,-0.444,1220.0
09:00:00 13/06/2008,-0.407,1220.0
09:00:00 14/06/2008,-0.327,1260.0
09:00:00 15/06/2008,-0.411,1340.0
09:00:00 16/06/2008,-0.457,1365.0
09:00:00 17/06/2008,-0.473,1410.0
09:00:00 18/06/2008,-0.48,1470.0
09:00:00 19/06/2008,-0.414,1425.0
09:00:00 20/06/2008,-0.342,1425.0
09:00:00 21/06/2008,-0.376,1295.0
09:00:00 22/06/2008,-0.35,1235.0
09:00:00 23/06/2008,-0.382,1350.0
09:00:00 24/06/2008,-0.376,1395.0
09:00:00 25/06/2008,-0.4,1440.0
09:00:00 26/06/2008,-0.439,1440.0
09:00:00 27/06/2008,-0.334,1395.0
09:00:00 28/06/2008,-0.44,1260.0
09:00:00 29/06/2008,-0.517,1170.0
09:00:00 30/06/2008,-0.501,1100.0
09:00:00 01/07/2008,-0.321,1030.0
09:00:00 02/07/2008,-0.298,994.5
09:00:00 03/07/2008,-0.358,994.5
09:00:00 04/07/2008,-0.423,1030.0
09:00:00 05/07/2008,-0.481,1030.0
09:00:00 06/07/2008,-0.521,1030.0
09:00:00 07/07/2008,-0.462,1030.0
09:00:00 08/07/2008,-0.314,1030.0
09:00:00 09/07/2008,-0.35,1030.0
09:00:00 10/07/2008,-0.422,994.5
09:00:00 11/07/2008,-0.096,1259.5
09:00:00 12/07/2008,-0.366,1560.0
09:00:00 13/07/2008,-0.5,1560.0
09:00:00 14/07/2008,-0.457,1560.0
09:00:00 15/07/2008,-0.336,1605.0
09:00:00 16/07/2008,-0.272,1600.0
09:00:00 17/07/2008,-0.392,1645.0
09:00:00 18/07/2008,-0.321,1680.0
09:00:00 19/07/2008,-0.348,1560.0
09:00:00 20/07/2008,-0.418,1545.0
09:00:00 21/07/2008,-0.34,1590.0
09:00:00 22/07/2008,-0.209,1545.0
09:00:00 23/07/2008,-0.311,1590.0
09:00:00 24/07/2008,-0.333,1635.0
09:00:00 25/07/2008,-0.365,1590.0
09:00:00 26/07/2008,-0.351,1545.0
09:00:00 27/07/2008,-0.274,1500.0
09:00:00 28/07/2008,-0.263,1500.0
09:00:00 29/07/2008,-0.304,1500.0
09:00:00 30/07/2008,-0.446,1455.0
09:00:00 31/07/2008,-0.326,1390.0
09:00:00 01/08/2008,-0.364,1335.0
09:00:00 02/08/2008,-0.172,1390.0
09:00:00 03/08/2008,-0.333,1350.0
09:00:00 04/08/2008,-0.378,1185.0
09:00:00 05/08/2008,-0.297,1265.0
09:00:00 06/08/2008,-0.257,1565.0
09:00:00 07/08/2008,-0.234,1640.0
09:00:00 08/08/2008,-0.173,1585.0
09:00:00 09/08/2008,-0.25,1640.0
09:00:00 10/08/2008,-0.242,1585.0
09:00:00 11/08/2008,-0.094,1585.0
09:00:00 12/08/2008,-0.206,1640.0
09:00:00 13/08/2008,-0.204,1640.0
09:00:00 14/08/2008,-0.219,1695.0
09:00:00 15/08/2008,-0.155,1750.0
09:00:00 16/08/2008,-0.113,1870.0
09:00:00 17/08/2008,-0.115,1990.0
09:00:00 18/08/2008,-0.125,2055.0
09:00:00 19/08/2008,-0.163,1960.0
09:00:00 20/08/2008,-0.208,1800.0
09:00:00 21/08/2008,-0.23,1745.0
09:00:00 22/08/2008,-0.067,1765.0
09:00:00 23/08/2008,-0.122,1840.0
09:00:00 24/08/2008,-0.168,1840.0
09:00:00 25/08/2008,-0.213,1785.0
09:00:00 26/08/2008,-0.221,1730.0
09:00:00 27/08/2008,-0.152,1730.0
09:00:00 28/08/2008,-0.181,1730.0
09:00:00 29/08/2008,-0.203,1730.0
09:00:00 30/08/2008,-0.232,1785.0
09:00:00 31/08/2008,-0.249,1840.0
09:00:00 01/09/2008,-0.035,1840.0
09:00:00 02/09/2008,-0.172,1840.0
09:00:00 03/09/2008,-0.126,1840.0
09:00:00 04/09/2008,-0.148,1900.0
09:00:00 05/09/2008,-0.113,1960.0
09:00:00 06/09/2008,-0.138,1960.0
09:00:00 07/09/2008,-0.18,1900.0
09:00:00 08/09/2008,-0.139,1785.0
09:00:00 09/09/2008,-0.137,1800.0
09:00:00 10/09/2008,-0.196,1810.0
09:00:00 11/09/2008,-0.194,1765.0
09:00:00 12/09/2008,-0.234,1720.0
09:00:00 13/09/2008,-0.145,1715.0
09:00:00 14/09/2008,-0.225,1710.0
09:00:00 15/09/2008,-0.117,1650.0
09:00:00 16/09/2008,0.102,1745.0
09:00:00 17/09/2008,-0.116,1840.0
09:00:00 18/09/2008,-0.228,1780.0
09:00:00 19/09/2008,-0.192,1845.0
09:00:00 20/09/2008,-0.104,1865.0
09:00:00 21/09/2008,-0.062,1815.0
09:00:00 22/09/2008,-0.196,1870.0
09:00:00 23/09/2008,-0.005,1870.0
09:00:00 24/09/2008,-0.07,1870.0
09:00:00 25/09/2008,-0.167,1870.0
09:00:00 26/09/2008,-0.206,1870.0
09:00:00 27/09/2008,-0.17,1815.0
09:00:00 28/09/2008,-0.134,1710.0
09:00:00 29/09/2008,-0.072,1615.0
09:00:00 30/09/2008,-0.103,1770.0
09:00:00 01/10/2008,-0.202,1970.0
09:00:00 02/10/2008,-0.213,1910.0
09:00:00 03/10/2008,-0.159,1795.0
09:00:00 04/10/2008,-0.132,1795.0
09:00:00 05/10/2008,-0.115,1850.0
09:00:00 06/10/2008,-0.138,1850.0
09:00:00 07/10/2008,0.091,1850.0
09:00:00 08/10/2008,-0.079,1910.0
09:00:00 09/10/2008,-0.102,1970.0
09:00:00 10/10/2008,-0.156,1970.0
09:00:00 11/10/2008,-0.143,1970.0
09:00:00 12/10/2008,-0.156,1970.0
09:00:00 13/10/2008,-0.205,1800.0
09:00:00 14/10/2008,-0.024,1740.0
09:00:00 15/10/2008,-0.094,1850.0
09:00:00 16/10/2008,-0.123,1850.0
09:00:00 17/10/2008,-0.189,1850.0
09:00:00 18/10/2008,-0.202,1850.0
09:00:00 19/10/2008,-0.166,1635.0
09:00:00 20/10/2008,-0.029,1635.0
09:00:00 21/10/2008,-0.103,1795.0
09:00:00 22/10/2008,-0.131,1520.0
09:00:00 23/10/2008,-0.225,1255.0
09:00:00 24/10/2008,-0.282,1300.0
09:00:00 25/10/2008,-0.252,1360.0
09:00:00 26/10/2008,-0.299,1370.0
09:00:00 27/10/2008,-0.151,1410.0
09:00:00 28/10/2008,-0.137,1680.0
09:00:00 29/10/2008,-0.153,1900.0
09:00:00 30/10/2008,-0.259,1900.0
09:00:00 31/10/2008,-0.169,1790.0
09:00:00 01/11/2008,-0.056,1680.0
09:00:00 02/11/2008,-0.238,1785.0
09:00:00 03/11/2008,-0.167,1840.0
09:00:00 04/11/2008,-0.115,1950.0
09:00:00 05/11/2008,-0.273,2060.0
09:00:00 06/11/2008,-0.171,2060.0
09:00:00 07/11/2008,-0.275,2060.0
09:00:00 08/11/2008,-0.173,2060.0
09:00:00 09/11/2008,-0.071,2060.0
09:00:00 10/11/2008,-0.206,2060.0
09:00:00 11/11/2008,-0.23,2060.0
09:00:00 12/11/2008,-0.264,2060.0
09:00:00 13/11/2008,-0.318,2060.0
09:00:00 14/11/2008,-0.168,1895.0
09:00:00 15/11/2008,-0.147,1895.0
09:00:00 16/11/2008,-0.145,2060.0
09:00:00 17/11/2008,-0.202,2060.0
09:00:00 18/11/2008,-0.264,2060.0
09:00:00 19/11/2008,-0.237,1945.0
09:00:00 20/11/2008,-0.219,1830.0
09:00:00 21/11/2008,-0.185,1880.0
09:00:00 22/11/2008,-0.135,1880.0
09:00:00 23/11/2008,-0.026,1880.0
09:00:00 24/11/2008,-0.221,1985.0
09:00:00 25/11/2008,-0.322,1880.0
09:00:00 26/11/2008,-0.344,1880.0
09:00:00 27/11/2008,-0.336,1795.0
09:00:00 28/11/2008,-0.288,1700.0
09:00:00 29/11/2008,-0.267,1850.0
09:00:00 30/11/2008,-0.2,1795.0
09:00:00 01/12/2008,-0.297,1690.0
09:00:00 02/12/2008,-0.312,1685.0
09:00:00 03/12/2008,-0.337,1680.0
09:00:00 04/12/2008,-0.338,1580.0
09:00:00 05/12/2008,-0.482,1580.0
09:00:00 06/12/2008,-0.279,1630.0
09:00:00 07/12/2008,-0.314,1630.0
09:00:00 08/12/2008,-0.322,1680.0
09:00:00 09/12/2008,-0.415,1680.0
09:00:00 10/12/2008,-0.337,1680.0
09:00:00 11/12/2008,-0.335,1730.0
09:00:00 12/12/2008,-0.456,1785.0
09:00:00 13/12/2008,-0.318,1785.0
09:00:00 14/12/2008,-0.197,1780.0
09:00:00 15/12/2008,-0.242,1985.0
09:00:00 16/12/2008,-0.391,1925.0
09:00:00 17/12/2008,-0.367,1815.0
09:00:00 18/12/2008,-0.413,1790.0
09:00:00 19/12/2008,-0.217,1615.0
09:00:00 20/12/2008,-0.347,1565.0
09:00:00 21/12/2008,-0.487,1560.0
09:00:00 22/12/2008,-0.551,1470.0
09:00:00 23/12/2008,-0.3,1380.0
09:00:00 24/12/2008,-0.386,1480.0
09:00:00 25/12/2008,-0.433,1530.0
09:00:00 26/12/2008,-0.49,1480.0
09:00:00 27/12/2008,-0.457,1390.0
09:00:00 28/12/2008,-0.435,1345.0
09:00:00 29/12/2008,-0.38,1345.0
09:00:00 30/12/2008,-0.411,1330.0
09:00:00 31/12/2008,-0.317,1315.0
09:00:00 01/01/2009,-0.463,1330.0
09:00:00 02/01/2009,-0.298,1300.0
09:00:00 03/01/2009,-0.446,1290.0
09:00:00 04/01/2009,-0.556,1370.0
09:00:00 05/01/2009,-0.508,1275.0
09:00:00 06/01/2009,-0.483,1320.0
09:00:00 07/01/2009,-0.465,1350.0
09:00:00 08/01/2009,-0.395,1395.0
09:00:00 09/01/2009,-0.436,1490.0
09:00:00 10/01/2009,-0.523,1430.0
09:00:00 11/01/2009,-0.463,1430.0
09:00:00 12/01/2009,-0.46,1455.0
09:00:00 13/01/2009,-0.584,1580.0
09:00:00 14/01/2009,-0.621,1385.0
09:00:00 15/01/2009,-0.376,1310.0
09:00:00 16/01/2009,-0.448,1530.0
09:00:00 17/01/2009,-0.448,1530.0
09:00:00 18/01/2009,-0.563,1530.0
09:00:00 19/01/2009,-0.629,1530.0
09:00:00 20/01/2009,-0.616,1475.0
09:00:00 21/01/2009,-0.524,1420.0
09:00:00 22/01/2009,-0.619,1475.0
09:00:00 23/01/2009,-0.54,1395.0
09:00:00 24/01/2009,-0.646,1210.0
09:00:00 25/01/2009,-0.577,1210.0
09:00:00 26/01/2009,-0.627,1260.0
09:00:00 27/01/2009,-0.633,1360.0
09:00:00 28/01/2009,-0.7,1460.0
09:00:00 29/01/2009,-0.721,1360.0
09:00:00 30/01/2009,-0.74,1210.0
09:00:00 31/01/2009,-0.68,1210.0
09:00:00 01/02/2009,-0.577,1260.0
09:00:00 02/02/2009,-0.623,1260.0
09:00:00 03/02/2009,-0.559,1210.0
09:00:00 04/02/2009,-0.621,1275.0
09:00:00 05/02/2009,-0.636,1400.0
09:00:00 06/02/2009,-0.6,1410.0
09:00:00 07/02/2009,-0.729,1365.0
09:00:00 08/02/2009,-0.613,1275.0
09:00:00 09/02/2009,-0.577,1320.0
09:00:00 10/02/2009,-0.587,1515.0
09:00:00 11/02/2009,-0.589,1545.0
09:00:00 12/02/2009,-0.576,1520.0
09:00:00 13/02/2009,-0.598,1625.0
09:00:00 14/02/2009,-0.669,1720.0
09:00:00 15/02/2009,-0.647,1665.0
09:00:00 16/02/2009,-0.646,1625.0
09:00:00 17/02/2009,-0.664,1680.0
09:00:00 18/02/2009,-0.721,1650.0
09:00:00 19/02/2009,-0.761,1575.0
09:00:00 20/02/2009,-0.65,1505.0
09:00:00 21/02/2009,-0.617,1580.0
09:00:00 22/02/2009,-0.616,1725.0
09:00:00 23/02/2009,-0.697,1770.0
09:00:00 24/02/2009,-0.585,1725.0
09:00:00 25/02/2009,-0.671,1725.0
09:00:00 26/02/2009,-0.714,1770.0
09:00:00 27/02/2009,-0.74,1770.0
09:00:00 28/02/2009,-0.623,1770.0
09:00:00 01/03/2009,-0.648,1770.0
09:00:00 02/03/2009,-0.688,1820.0
09:00:00 03/03/2009,-0.72,1870.0
09:00:00 04/03/2009,-0.62,1860.0
09:00:00 05/03/2009,-0.406,1790.0
09:00:00 06/03/2009,-0.594,1820.0
09:00:00 07/03/2009,-0.675,1960.0
09:00:00 08/03/2009,-0.66,1915.0
09:00:00 09/03/2009,-0.66,1820.0
09:00:00 10/03/2009,-0.655,1775.0
09:00:00 11/03/2009,-0.668,1775.0
09:00:00 12/03/2009,-0.698,1775.0
09:00:00 13/03/2009,-0.694,1730.0
09:00:00 14/03/2009,-0.712,1730.0
09:00:00 15/03/2009,-0.532,1775.0
09:00:00 16/03/2009,-0.602,1820.0
09:00:00 17/03/2009,-0.621,1865.0
09:00:00 18/03/2009,-0.685,1855.0
09:00:00 19/03/2009,-0.715,1800.0
09:00:00 20/03/2009,-0.674,1800.0
09:00:00 21/03/2009,-0.711,1800.0
09:00:00 22/03/2009,-0.718,1715.0
09:00:00 23/03/2009,-0.649,1715.0
09:00:00 24/03/2009,-0.71,1800.0
09:00:00 25/03/2009,-0.721,1845.0
09:00:00 26/03/2009,-0.708,1845.0
09:00:00 27/03/2009,-0.652,1845.0
09:00:00 28/03/2009,-0.698,1890.0
09:00:00 29/03/2009,-0.718,1890.0
09:00:00 30/03/2009,-0.714,1845.0
09:00:00 31/03/2009,-0.698,1800.0
09:00:00 01/04/2009,-0.745,1710.0
09:00:00 02/04/2009,-0.801,1540.0
09:00:00 03/04/2009,-0.767,1370.0
09:00:00 04/04/2009,-0.658,1390.0
09:00:00 05/04/2009,-0.747,1465.0
09:00:00 06/04/2009,-0.709,1395.0
09:00:00 07/04/2009,-0.747,1420.0
09:00:00 08/04/2009,-0.748,1440.0
09:00:00 09/04/2009,-0.764,1400.0
09:00:00 10/04/2009,-0.781,1400.0
09:00:00 11/04/2009,-0.782,1360.0
09:00:00 12/04/2009,-0.804,1320.0
09:00:00 13/04/2009,-0.813,1320.0
09:00:00 14/04/2009,-0.812,1320.0
09:00:00 15/04/2009,-0.798,1320.0
09:00:00 16/04/2009,-0.662,1405.0
09:00:00 17/04/2009,-0.759,1490.0
09:00:00 18/04/2009,-0.766,1450.0
09:00:00 19/04/2009,-0.757,1410.0
09:00:00 20/04/2009,-0.749,1410.0
09:00:00 21/04/2009,-0.761,1410.0
09:00:00 22/04/2009,-0.77,1410.0
09:00:00 23/04/2009,-0.778,1450.0
09:00:00 24/04/2009,-0.776,1535.0
09:00:00 25/04/2009,-0.736,1500.0
09:00:00 26/04/2009,-0.685,1420.0
09:00:00 27/04/2009,-0.588,1500.0
09:00:00 28/04/2009,-0.7,1530.0
09:00:00 29/04/2009,-0.724,1520.0
09:00:00 30/04/2009,-0.748,1515.0
09:00:00 01/05/2009,-0.734,1505.0
09:00:00 02/05/2009,-0.728,1435.0
09:00:00 03/05/2009,-0.712,1405.0
09:00:00 04/05/2009,-0.716,1480.0
09:00:00 05/05/2009,-0.754,1335.0
09:00:00 06/05/2009,-0.766,1190.0
09:00:00 07/05/2009,-0.749,1150.0
09:00:00 08/05/2009,-0.723,1175.0
09:00:00 09/05/2009,-0.72,1200.0
09:00:00 10/05/2009,-0.726,1160.0
09:00:00 11/05/2009,-0.734,1160.0
09:00:00 12/05/2009,-0.736,1125.0
09:00:00 13/05/2009,-0.731,1150.0
09:00:00 14/05/2009,-0.73,1195.0
09:00:00 15/05/2009,-0.739,1115.0
09:00:00 16/05/2009,-0.708,1115.0
09:00:00 17/05/2009,-0.676,1140.0
09:00:00 18/05/2009,-0.729,1060.0
09:00:00 19/05/2009,-0.716,1110.0
09:00:00 20/05/2009,-0.702,1155.0
09:00:00 21/05/2009,-0.689,1115.0
09:00:00 22/05/2009,-0.674,1220.0
09:00:00 23/05/2009,-0.683,1320.0
09:00:00 24/05/2009,-0.708,1275.0
09:00:00 25/05/2009,-0.697,1230.0
09:00:00 26/05/2009,-0.682,1230.0
09:00:00 27/05/2009,-0.681,1185.0
09:00:00 28/05/2009,-0.686,1140.0
09:00:00 29/05/2009,-0.674,1185.0
09:00:00 30/05/2009,-0.67,1230.0
09:00:00 31/05/2009,-0.669,1230.0
09:00:00 01/06/2009,-0.664,1230.0
09:00:00 02/06/2009,-0.65,1275.0
09:00:00 03/06/2009,-0.675,1280.0
09:00:00 04/06/2009,-0.689,1195.0
09:00:00 05/06/2009,-0.688,
09:00:00 06/06/2009,-0.713,
09:00:00 07/06/2009,-0.707,1205.0
09:00:00 08/06/2009,-0.662,1280.0
09:00:00 09/06/2009,-0.606,1400.0
09:00:00 10/06/2009,-0.616,1280.0
09:00:00 11/06/2009,-0.695,1080.0
09:00:00 12/06/2009,-0.714,1080.0
09:00:00 13/06/2009,-0.743,1080.0
09:00:00 14/06/2009,-0.747,1120.0
09:00:00 15/06/2009,-0.734,1160.0
09:00:00 16/06/2009,-0.678,1205.0
09:00:00 17/06/2009,-0.734,1098.5
09:00:00 18/06/2009,-0.772,947.0
09:00:00 19/06/2009,-0.765,1023.5
09:00:00 20/06/2009,-0.787,1060.0
09:00:00 21/06/2009,-0.815,1020.0
09:00:00 22/06/2009,-0.791,1020.0
09:00:00 23/06/2009,-0.795,1050.0
09:00:00 24/06/2009,-0.798,1045.0
09:00:00 25/06/2009,-0.758,1075.0
09:00:00 26/06/2009,-0.762,1140.0
09:00:00 27/06/2009,-0.765,1140.0
09:00:00 28/06/2009,-0.755,1140.0
09:00:00 29/06/2009,-0.781,1140.0
09:00:00 30/06/2009,-0.801,1100.0
09:00:00 01/07/2009,-0.757,1060.0
09:00:00 02/07/2009,-0.673,1060.0
09:00:00 03/07/2009,-0.692,984.5
09:00:00 04/07/2009,-0.64,909.0
09:00:00 05/07/2009,-0.724,909.0
09:00:00 06/07/2009,-0.769,943.5
09:00:00 07/07/2009,-0.767,978.0
09:00:00 08/07/2009,-0.783,1014.0
09:00:00 09/07/2009,-0.787,1050.0
09:00:00 10/07/2009,-0.81,1014.5
09:00:00 11/07/2009,-0.84,1059.5
09:00:00 12/07/2009,-0.807,1100.0
09:00:00 13/07/2009,-0.722,1019.5
09:00:00 14/07/2009,-0.733,1019.5
09:00:00 15/07/2009,-0.753,1060.0
09:00:00 16/07/2009,-0.702,1060.0
09:00:00 17/07/2009,-0.727,1100.0
09:00:00 18/07/2009,-0.79,1060.0
09:00:00 19/07/2009,-0.795,980.0
09:00:00 20/07/2009,-0.795,1020.0
09:00:00 21/07/2009,-0.802,1060.0
09:00:00 22/07/2009,-0.771,1060.0